Tracking 21076 objects as of 8-Aug-2020
HD Live streaming from Space Station
objects crossing your sky now

ATLAS H R/B

Track ATLAS H R/B now!
10-day predictions


NORAD ID: 16592
Int'l Code: 1986-014B
Perigee: 680.4 km
Apogee: 1,353.8 km
Inclination: 63.3 °
Period: 105.3 minutes
Semi major axis: 7388 km
RCS: Unknown
Launch date: February 9, 1986
Source: United States (US)
Launch site: AIR FORCE WESTERN TEST RANGE (AFWTR)

Note: This is a ROCKET BODY
aabbcc
Your satellite tracking list
Your tracking list is empty




NASA's NSSDC Master Catalog

Two Line Element Set (TLE):
1 16592U 86014B   20220.36489143 +.00000331 +00000-0 +25022-3 0  9997
2 16592 063.3200 201.0340 0455723 121.4048 243.2398 13.67110923067125
Source of the keplerian elements: McCants